Location: Wald
(31.7579°N, 86.6655°W)
Time: 12:05:44
(UTC+00:00)

Cosmos 1328 - Pass Details

Date: 14 July 2020
Orbit: 538 x 545 km, 82.5° (Epoch: 09 August)

Event Time Altitude Azimuth Distance (km) Brightness Sun altitude
Rises 01:24:05 0° 175° (S) 2,686 7.0 -6.5°
Reaches altitude 10° 01:26:15 10° 170° (S) 1,797 6.1 -6.9°
Maximum altitude 01:30:06 53° 94° (E) 666 3.9 -7.6°
Drops below altitude 10° 01:33:58 10° 17° (NNE) 1,804 6.7 -8.3°
Sets 01:36:10 0° 12° (NNE) 2,699 7.6 -8.7°
